Location: Unspecified
(43.4680°N, 87.1740°E)
Time: 20:39:30
(UTC+00:00)

CZ-2D R/B - Pass Details

Date: 24 July 2021
Orbit: 553 x 637 km, 97.9° (Epoch: 20 September)

Event Time Altitude Azimuth Distance (km) Brightness Sun altitude
Rises 21:55:58 0° 10° (N) 2,748 7.7 -9.5°
Reaches altitude 10° 21:58:06 10° 7° (N) 1,854 6.7 -9.2°
Maximum altitude 22:02:04 65° 286° (WNW) 622 3.4 -8.6°
Drops below altitude 10° 22:06:04 10° 204° (SSW) 1,873 5.5 -8.1°
Enters shadow 22:06:45 - 203° (SSW) 2,156 5.8 -8.0°
